GSAT0104 (PRN E20)

Last updated on Feb. 26, 2020, 4:49 a.m. UTC

1 38858U 12055B   20056.30446806 -.00000008  00000-0  00000-0 0  9998
2 38858  54.9622 164.8955 0001591 258.1931 101.7785  1.70473716 45885
UTC
Height (km)
Latitude
Longitude
Inclination
Orbital Period
UTC large
Height (km)
Speed (km/s)
/
Latitude / Longitude
Inclination (degrees)
Orbital Period (minutes)
Azimuth
Elevation
Range (km)
Doppler Factor
iOS Compass Heading
iOS Angle

Next 30 passes for location: Hong Kong

Rise time Rise Azimuth (degrees) Set time Set Azimuth (degrees) Duration Max altitude (degrees)

No matching passes for this satellites